TimeMST,TemperatureF,Dew PointF,Humidity,Sea Level PressureIn,VisibilityMPH,Wind Direction,Wind SpeedMPH,Gust SpeedMPH,PrecipitationIn,Events,Conditions,WindDirDegrees,DateUTC
12:53 AM,39.0,17.1,41,30.14,10.0,SW,9.2,-,N/A,,Clear,220,2012-11-28 07:53:00
1:53 AM,39.9,16.0,38,30.12,10.0,North,-9999.0,-,N/A,,Clear,0,2012-11-28 08:53:00
2:53 AM,39.0,16.0,39,30.11,10.0,SW,13.8,-,N/A,,Clear,220,2012-11-28 09:53:00
3:53 AM,39.0,15.1,38,30.11,10.0,SW,20.7,29.9,N/A,,Clear,220,2012-11-28 10:53:00
4:53 AM,39.0,14.0,36,30.13,10.0,SW,18.4,27.6,N/A,,Clear,220,2012-11-28 11:53:00
5:53 AM,37.9,15.1,39,30.15,10.0,SW,18.4,-,N/A,,Clear,230,2012-11-28 12:53:00
6:53 AM,37.9,14.0,38,30.16,10.0,SW,16.1,-,N/A,,Clear,230,2012-11-28 13:53:00
7:53 AM,39.0,14.0,36,30.17,10.0,SW,15.0,-,N/A,,Clear,230,2012-11-28 14:53:00
8:53 AM,42.1,14.0,32,30.13,10.0,SW,19.6,25.3,N/A,,Clear,230,2012-11-28 15:53:00
9:53 AM,46.0,14.0,28,30.09,10.0,SW,21.9,28.8,N/A,,Clear,220,2012-11-28 16:53:00
10:53 AM,50.0,15.1,25,30.08,10.0,SW,23.0,29.9,N/A,,Clear,220,2012-11-28 17:53:00
11:53 AM,52.0,15.1,23,30.06,10.0,SW,23.0,29.9,N/A,,Clear,220,2012-11-28 18:53:00
12:53 PM,55.0,16.0,22,30.02,10.0,SW,25.3,33.4,N/A,,Clear,220,2012-11-28 19:53:00
1:53 PM,55.0,15.1,21,29.99,10.0,SW,23.0,28.8,N/A,,Clear,230,2012-11-28 20:53:00
2:53 PM,55.0,15.1,21,29.98,10.0,SSW,20.7,-,N/A,,Clear,210,2012-11-28 21:53:00
3:53 PM,51.1,17.1,26,29.99,10.0,SSW,12.7,-,N/A,,Clear,210,2012-11-28 22:53:00
4:53 PM,45.0,17.1,33,30.00,10.0,SW,11.5,-,N/A,,Clear,230,2012-11-28 23:53:00
5:53 PM,44.1,16.0,32,30.00,10.0,SW,9.2,-,N/A,,Clear,220,2012-11-29 00:53:00
6:53 PM,44.1,15.1,31,30.00,10.0,Variable,3.5,-,N/A,,Clear,0,2012-11-29 01:53:00
7:53 PM,43.0,16.0,34,30.00,10.0,SW,10.4,-,N/A,,Clear,220,2012-11-29 02:53:00
8:53 PM,45.0,16.0,31,29.97,10.0,SSW,17.3,-,N/A,,Clear,210,2012-11-29 03:53:00
9:53 PM,46.0,16.0,30,29.94,10.0,SSW,19.6,27.6,N/A,,Clear,210,2012-11-29 04:53:00
10:53 PM,44.1,18.0,35,29.93,10.0,SSW,13.8,-,N/A,,Clear,210,2012-11-29 05:53:00
11:53 PM,43.0,18.0,37,29.92,10.0,SW,12.7,-,N/A,,Clear,220,2012-11-29 06:53:00